Year,Month,Day,Hour,Minute,Value (Times are PST for temperature in C)
2019,09,25,00,00,13.20
2019,09,25,00,01,13.30
2019,09,25,00,02,13.30
2019,09,25,00,03,13.30
2019,09,25,00,04,13.20
2019,09,25,00,05,13.20
2019,09,25,00,06,13.20
2019,09,25,00,07,13.20
2019,09,25,00,08,13.20
2019,09,25,00,09,13.20
2019,09,25,00,10,13.20
2019,09,25,00,11,13.20
2019,09,25,00,12,13.20
2019,09,25,00,13,13.20
2019,09,25,00,14,13.20
2019,09,25,00,15,13.20
2019,09,25,00,16,13.20
2019,09,25,00,17,13.20
2019,09,25,00,18,13.20
2019,09,25,00,19,13.20
2019,09,25,00,20,13.20
2019,09,25,00,21,13.20
2019,09,25,00,22,13.20
2019,09,25,00,23,13.10
2019,09,25,00,24,13.10
2019,09,25,00,25,13.10
2019,09,25,00,26,13.10
2019,09,25,00,27,13.10
2019,09,25,00,28,13.10
2019,09,25,00,29,13.10
2019,09,25,00,30,13.10
2019,09,25,00,31,13.10
2019,09,25,00,32,13.10
2019,09,25,00,33,13.10
2019,09,25,00,34,13.10
2019,09,25,00,35,13.00
2019,09,25,00,36,13.00
2019,09,25,00,37,13.00
2019,09,25,00,38,13.00
2019,09,25,00,39,13.00
2019,09,25,00,40,12.90
2019,09,25,00,41,12.90
2019,09,25,00,42,12.90
2019,09,25,00,43,12.90
2019,09,25,00,44,12.90
2019,09,25,00,45,12.90
2019,09,25,00,46,12.80
2019,09,25,00,47,12.80
2019,09,25,00,48,12.80
2019,09,25,00,49,12.80
2019,09,25,00,50,12.80
2019,09,25,00,51,12.70
2019,09,25,00,52,12.70
2019,09,25,00,53,12.70
2019,09,25,00,54,12.70
2019,09,25,00,55,12.70
2019,09,25,00,56,12.70
2019,09,25,00,57,12.70
2019,09,25,00,58,12.70
2019,09,25,00,59,12.70
2019,09,25,01,00,12.60
2019,09,25,01,01,12.60
2019,09,25,01,02,12.60
2019,09,25,01,03,12.60
2019,09,25,01,04,12.60
2019,09,25,01,05,12.60
2019,09,25,01,06,12.60
2019,09,25,01,07,12.60
2019,09,25,01,08,12.60
2019,09,25,01,09,12.60
2019,09,25,01,10,12.60
2019,09,25,01,11,12.60
2019,09,25,01,12,12.60
2019,09,25,01,13,12.60
2019,09,25,01,14,12.60
2019,09,25,01,15,12.60
2019,09,25,01,16,12.60
2019,09,25,01,17,12.60
2019,09,25,01,18,12.60
2019,09,25,01,19,12.60
2019,09,25,01,20,12.60
2019,09,25,01,21,12.60
2019,09,25,01,22,12.60
2019,09,25,01,23,12.60
2019,09,25,01,24,12.60
2019,09,25,01,25,12.60
2019,09,25,01,26,12.60
2019,09,25,01,27,12.60
2019,09,25,01,28,12.60
2019,09,25,01,29,12.60
2019,09,25,01,30,12.60
2019,09,25,01,31,12.60
2019,09,25,01,32,12.60
2019,09,25,01,33,12.60
2019,09,25,01,34,12.60
2019,09,25,01,35,12.60
2019,09,25,01,36,12.60
2019,09,25,01,37,12.60
2019,09,25,01,38,12.60
2019,09,25,01,39,12.50
2019,09,25,01,40,12.50
2019,09,25,01,41,12.50
2019,09,25,01,42,12.50
2019,09,25,01,43,12.50
2019,09,25,01,44,12.40
2019,09,25,01,45,12.40
2019,09,25,01,46,12.40
2019,09,25,01,47,12.40
2019,09,25,01,48,12.40
2019,09,25,01,49,12.30
2019,09,25,01,50,12.30
2019,09,25,01,51,12.30
2019,09,25,01,52,12.30
2019,09,25,01,53,12.30
2019,09,25,01,54,12.30
2019,09,25,01,55,12.30
2019,09,25,01,56,12.30
2019,09,25,01,57,12.20
2019,09,25,01,58,12.20
2019,09,25,01,59,12.20
2019,09,25,02,00,12.20
2019,09,25,02,01,12.20
2019,09,25,02,02,12.20
2019,09,25,02,03,12.20
2019,09,25,02,04,12.10
2019,09,25,02,05,12.10
2019,09,25,02,06,12.10
2019,09,25,02,07,12.10
2019,09,25,02,08,12.10
2019,09,25,02,09,12.10
2019,09,25,02,10,12.10
2019,09,25,02,11,12.10
2019,09,25,02,12,12.10
2019,09,25,02,13,12.10
2019,09,25,02,14,12.10
2019,09,25,02,15,12.10
2019,09,25,02,16,12.10
2019,09,25,02,17,12.10
2019,09,25,02,18,12.10
2019,09,25,02,19,12.10
2019,09,25,02,20,12.10
2019,09,25,02,21,12.10
2019,09,25,02,22,12.10
2019,09,25,02,23,12.10
2019,09,25,02,24,12.00
2019,09,25,02,25,12.00
2019,09,25,02,26,12.00
2019,09,25,02,27,12.00
2019,09,25,02,28,12.00
2019,09,25,02,29,12.00
2019,09,25,02,30,12.00
2019,09,25,02,31,12.00
2019,09,25,02,32,11.90
2019,09,25,02,33,11.90
2019,09,25,02,34,11.90
2019,09,25,02,35,11.90
2019,09,25,02,36,11.90
2019,09,25,02,37,11.90
2019,09,25,02,38,11.90
2019,09,25,02,39,11.90
2019,09,25,02,40,11.90
2019,09,25,02,41,11.90
2019,09,25,02,42,11.90
2019,09,25,02,43,11.90
2019,09,25,02,44,11.90
2019,09,25,02,45,11.90
2019,09,25,02,46,11.90
2019,09,25,02,47,11.90
2019,09,25,02,48,11.90
2019,09,25,02,49,11.90
2019,09,25,02,50,11.90
2019,09,25,02,51,11.90
2019,09,25,02,52,11.90
2019,09,25,02,53,11.90
2019,09,25,02,54,11.90
2019,09,25,02,55,11.90
2019,09,25,02,56,11.90
2019,09,25,02,57,11.90
2019,09,25,02,58,11.90
2019,09,25,02,59,11.80
2019,09,25,03,00,11.80
2019,09,25,03,01,11.80
2019,09,25,03,02,11.80
2019,09,25,03,03,11.80
2019,09,25,03,04,11.80
2019,09,25,03,05,11.80
2019,09,25,03,06,11.90
2019,09,25,03,07,11.80
2019,09,25,03,08,11.80
2019,09,25,03,09,11.80
2019,09,25,03,10,11.80
2019,09,25,03,11,11.80
2019,09,25,03,12,11.80
2019,09,25,03,13,11.80
2019,09,25,03,14,11.80
2019,09,25,03,15,11.80
2019,09,25,03,16,11.80
2019,09,25,03,17,11.80
2019,09,25,03,18,11.70
2019,09,25,03,19,11.70
2019,09,25,03,20,11.70
2019,09,25,03,21,11.70
2019,09,25,03,22,11.70
2019,09,25,03,23,11.70
2019,09,25,03,24,11.70
2019,09,25,03,25,11.70
2019,09,25,03,26,11.60
2019,09,25,03,27,11.60
2019,09,25,03,28,11.70
2019,09,25,03,29,11.70
2019,09,25,03,30,11.70
2019,09,25,03,31,11.70
2019,09,25,03,32,11.70
2019,09,25,03,33,11.70
2019,09,25,03,34,11.60
2019,09,25,03,35,11.60
2019,09,25,03,36,11.60
2019,09,25,03,37,11.60
2019,09,25,03,38,11.50
2019,09,25,03,39,11.50
2019,09,25,03,40,11.50
2019,09,25,03,41,11.40
2019,09,25,03,42,11.40
2019,09,25,03,43,11.40
2019,09,25,03,44,11.40
2019,09,25,03,45,11.40
2019,09,25,03,46,11.40
2019,09,25,03,47,11.40
2019,09,25,03,48,11.40
2019,09,25,03,49,11.30
2019,09,25,03,50,11.30
2019,09,25,03,51,11.30
2019,09,25,03,52,11.30
2019,09,25,03,53,11.30
2019,09,25,03,54,11.30
2019,09,25,03,55,11.20
2019,09,25,03,56,11.20
2019,09,25,03,57,11.20
2019,09,25,03,58,11.10
2019,09,25,03,59,11.10
2019,09,25,04,00,11.10
2019,09,25,04,01,11.10
2019,09,25,04,02,11.00
2019,09,25,04,03,11.00
2019,09,25,04,04,11.00
2019,09,25,04,05,10.90
2019,09,25,04,06,10.90
2019,09,25,04,07,10.90
2019,09,25,04,08,10.80
2019,09,25,04,09,10.80
2019,09,25,04,10,10.80
2019,09,25,04,11,10.80
2019,09,25,04,12,10.80
2019,09,25,04,13,10.80
2019,09,25,04,14,10.70
2019,09,25,04,15,10.70
2019,09,25,04,16,10.70
2019,09,25,04,17,10.70
2019,09,25,04,18,10.70
2019,09,25,04,19,10.70
2019,09,25,04,20,10.70
2019,09,25,04,21,10.70
2019,09,25,04,22,10.60
2019,09,25,04,23,10.60
2019,09,25,04,24,10.60
2019,09,25,04,25,10.60
2019,09,25,04,26,10.50
2019,09,25,04,27,10.50
2019,09,25,04,28,10.50
2019,09,25,04,29,10.50
2019,09,25,04,30,10.50
2019,09,25,04,31,10.40
2019,09,25,04,32,10.40
2019,09,25,04,33,10.40
2019,09,25,04,34,10.40
2019,09,25,04,35,10.30
2019,09,25,04,36,10.30
2019,09,25,04,37,10.30
2019,09,25,04,38,10.30
2019,09,25,04,39,10.30
2019,09,25,04,40,10.20
2019,09,25,04,41,10.20
2019,09,25,04,42,10.20
2019,09,25,04,43,10.20
2019,09,25,04,44,10.20
2019,09,25,04,45,10.10
2019,09,25,04,46,10.10
2019,09,25,04,47,10.10
2019,09,25,04,48,10.10
2019,09,25,04,49,10.10
2019,09,25,04,50,10.10
2019,09,25,04,51,10.10
2019,09,25,04,52,10.10
2019,09,25,04,53,10.10
2019,09,25,04,54,10.10
2019,09,25,04,55,10.10
2019,09,25,04,56,10.10
2019,09,25,04,57,10.10
2019,09,25,04,58,10.10
2019,09,25,04,59,10.10
2019,09,25,05,00,10.10
2019,09,25,05,01,10.10
2019,09,25,05,02,10.10
2019,09,25,05,03,10.00
2019,09,25,05,04,10.00
2019,09,25,05,05,10.00
2019,09,25,05,06,10.00
2019,09,25,05,07,10.00
2019,09,25,05,08,10.00
2019,09,25,05,09,10.00
2019,09,25,05,10,10.00
2019,09,25,05,11,10.00
2019,09,25,05,12,10.00
2019,09,25,05,13,10.00
2019,09,25,05,14,9.90
2019,09,25,05,15,9.90
2019,09,25,05,16,9.90
2019,09,25,05,17,9.90
2019,09,25,05,18,9.90
2019,09,25,05,19,9.90
2019,09,25,05,20,9.90
2019,09,25,05,21,9.90
2019,09,25,05,22,9.90
2019,09,25,05,23,9.90
2019,09,25,05,24,9.90
2019,09,25,05,25,9.90
2019,09,25,05,26,9.90
2019,09,25,05,27,9.80
2019,09,25,05,28,9.80
2019,09,25,05,29,9.80
2019,09,25,05,30,9.80
2019,09,25,05,31,9.80
2019,09,25,05,32,9.80
2019,09,25,05,33,9.80
2019,09,25,05,34,9.70
2019,09,25,05,35,9.70
2019,09,25,05,36,9.70
2019,09,25,05,37,9.70
2019,09,25,05,38,9.70
2019,09,25,05,39,9.70
2019,09,25,05,40,9.70
2019,09,25,05,41,9.70
2019,09,25,05,42,9.70
2019,09,25,05,43,9.70
2019,09,25,05,44,9.70
2019,09,25,05,45,9.70
2019,09,25,05,46,9.70
2019,09,25,05,47,9.70
2019,09,25,05,48,9.70
2019,09,25,05,49,9.70
2019,09,25,05,50,9.80
2019,09,25,05,51,9.80
2019,09,25,05,52,9.80
2019,09,25,05,53,9.80
2019,09,25,05,54,9.80
2019,09,25,05,55,9.80
2019,09,25,05,56,9.80
2019,09,25,05,57,9.80
2019,09,25,05,58,9.90
2019,09,25,05,59,9.80
2019,09,25,06,00,9.80
2019,09,25,06,01,9.80
2019,09,25,06,02,9.80
2019,09,25,06,03,9.80
2019,09,25,06,04,9.80
2019,09,25,06,05,9.80
2019,09,25,06,06,9.80
2019,09,25,06,07,9.80
2019,09,25,06,08,9.80
2019,09,25,06,09,9.80
2019,09,25,06,10,9.70
2019,09,25,06,11,9.70
2019,09,25,06,12,9.70
2019,09,25,06,13,9.60
2019,09,25,06,14,9.60
2019,09,25,06,15,9.60
2019,09,25,06,16,9.60
2019,09,25,06,17,9.60
2019,09,25,06,18,9.70
2019,09,25,06,19,9.70
2019,09,25,06,20,9.80
2019,09,25,06,21,9.80
2019,09,25,06,22,9.80
2019,09,25,06,23,9.80
2019,09,25,06,24,9.80
2019,09,25,06,25,9.80
2019,09,25,06,26,9.90
2019,09,25,06,27,9.90
2019,09,25,06,28,9.90
2019,09,25,06,29,9.90
2019,09,25,06,30,9.90
2019,09,25,06,31,9.90
2019,09,25,06,32,9.90
2019,09,25,06,33,9.90
2019,09,25,06,34,9.90
2019,09,25,06,35,9.90
2019,09,25,06,36,9.90
2019,09,25,06,37,9.80
2019,09,25,06,38,9.80
2019,09,25,06,39,9.80
2019,09,25,06,40,9.80
2019,09,25,06,41,9.80
2019,09,25,06,42,9.80
2019,09,25,06,43,9.80
2019,09,25,06,44,9.80
2019,09,25,06,45,9.80
2019,09,25,06,46,9.80
2019,09,25,06,47,9.90
2019,09,25,06,48,9.90
2019,09,25,06,49,9.90
2019,09,25,06,50,9.90
2019,09,25,06,51,9.90
2019,09,25,06,52,9.90
2019,09,25,06,53,10.00
2019,09,25,06,54,10.00
2019,09,25,06,55,10.00
2019,09,25,06,56,10.00
2019,09,25,06,57,9.90
2019,09,25,06,58,9.90
2019,09,25,06,59,9.90
2019,09,25,07,00,9.80
2019,09,25,07,01,9.80
2019,09,25,07,02,9.80
2019,09,25,07,03,9.80
2019,09,25,07,04,9.80
2019,09,25,07,05,9.70
2019,09,25,07,06,9.70
2019,09,25,07,07,9.70
2019,09,25,07,08,9.70
2019,09,25,07,09,9.70
2019,09,25,07,10,9.70
2019,09,25,07,11,9.70
2019,09,25,07,12,9.70
2019,09,25,07,13,9.70
2019,09,25,07,14,9.70
2019,09,25,07,15,9.70
2019,09,25,07,16,9.70
2019,09,25,07,17,9.70
2019,09,25,07,18,9.70
2019,09,25,07,19,9.60
2019,09,25,07,20,9.60
2019,09,25,07,21,9.60
2019,09,25,07,22,9.70
2019,09,25,07,23,9.70
2019,09,25,07,24,9.70
2019,09,25,07,25,9.70
2019,09,25,07,26,9.70
2019,09,25,07,27,9.70
2019,09,25,07,28,9.70
2019,09,25,07,29,9.70
2019,09,25,07,30,9.70
2019,09,25,07,31,9.70
2019,09,25,07,32,9.70
2019,09,25,07,33,9.70
2019,09,25,07,34,9.70
2019,09,25,07,35,9.60
2019,09,25,07,36,9.60
2019,09,25,07,37,9.60
2019,09,25,07,38,9.60
2019,09,25,07,39,9.60
2019,09,25,07,40,9.60
2019,09,25,07,41,9.60
2019,09,25,07,42,9.60
2019,09,25,07,43,9.60
2019,09,25,07,44,9.60
2019,09,25,07,45,9.60
2019,09,25,07,46,9.60
2019,09,25,07,47,9.60
2019,09,25,07,48,9.60
2019,09,25,07,49,9.60
2019,09,25,07,50,9.60
2019,09,25,07,51,9.60
2019,09,25,07,52,9.60
2019,09,25,07,53,9.60
2019,09,25,07,54,9.60
2019,09,25,07,55,9.60
2019,09,25,07,56,9.60
2019,09,25,07,57,9.60
2019,09,25,07,58,9.60
2019,09,25,07,59,9.60
2019,09,25,08,00,9.70
2019,09,25,08,01,9.70
2019,09,25,08,02,9.70
2019,09,25,08,03,9.80
2019,09,25,08,04,9.80
2019,09,25,08,05,9.80
2019,09,25,08,06,9.80
2019,09,25,08,07,9.90
2019,09,25,08,08,9.90
2019,09,25,08,09,9.90
2019,09,25,08,10,9.90
2019,09,25,08,11,9.90
2019,09,25,08,12,9.90
2019,09,25,08,13,9.90
2019,09,25,08,14,9.90
2019,09,25,08,15,9.90
2019,09,25,08,16,9.90
2019,09,25,08,17,10.00
2019,09,25,08,18,10.00
2019,09,25,08,19,10.00
2019,09,25,08,20,10.10
2019,09,25,08,21,10.10
2019,09,25,08,22,10.10
2019,09,25,08,23,10.20
2019,09,25,08,24,10.20
2019,09,25,08,25,10.30
2019,09,25,08,26,10.30
2019,09,25,08,27,10.30
2019,09,25,08,28,10.30
2019,09,25,08,29,10.30
2019,09,25,08,30,10.40
2019,09,25,08,31,10.40
2019,09,25,08,32,10.50
2019,09,25,08,33,10.50
2019,09,25,08,34,10.50
2019,09,25,08,35,10.50
2019,09,25,08,36,10.60
2019,09,25,08,37,10.60
2019,09,25,08,38,10.60
2019,09,25,08,39,10.60
2019,09,25,08,40,10.60
2019,09,25,08,41,10.70
2019,09,25,08,42,10.70
2019,09,25,08,43,10.80
2019,09,25,08,44,10.80
2019,09,25,08,45,10.90
2019,09,25,08,46,10.90
2019,09,25,08,47,10.90
2019,09,25,08,48,10.90
2019,09,25,08,49,11.00
2019,09,25,08,50,11.00
2019,09,25,08,51,11.10
2019,09,25,08,52,11.10
2019,09,25,08,53,11.20
2019,09,25,08,54,11.20
2019,09,25,08,55,11.20
2019,09,25,08,56,11.30
2019,09,25,08,57,11.30
2019,09,25,08,58,11.40
2019,09,25,08,59,11.50
2019,09,25,09,00,11.50
2019,09,25,09,01,11.60
2019,09,25,09,02,11.70
2019,09,25,09,03,11.70
2019,09,25,09,04,11.80
2019,09,25,09,05,11.80
2019,09,25,09,06,11.90
2019,09,25,09,07,11.90
2019,09,25,09,08,12.00
2019,09,25,09,09,12.10
2019,09,25,09,10,12.20
2019,09,25,09,11,12.20
2019,09,25,09,12,12.30
2019,09,25,09,13,12.30
2019,09,25,09,14,12.40
2019,09,25,09,15,12.40
2019,09,25,09,16,12.40
2019,09,25,09,17,12.40
2019,09,25,09,18,12.40
2019,09,25,09,19,12.50
2019,09,25,09,20,12.50
2019,09,25,09,21,12.50
2019,09,25,09,22,12.60
2019,09,25,09,23,12.60
2019,09,25,09,24,12.70
2019,09,25,09,25,12.80
2019,09,25,09,26,12.80
2019,09,25,09,27,12.90
2019,09,25,09,28,12.90
2019,09,25,09,29,13.00
2019,09,25,09,30,13.00
2019,09,25,09,31,13.10
2019,09,25,09,32,13.10
2019,09,25,09,33,13.10
2019,09,25,09,34,13.20
2019,09,25,09,35,13.20
2019,09,25,09,36,13.20
2019,09,25,09,37,13.30
2019,09,25,09,38,13.40
2019,09,25,09,39,13.50
2019,09,25,09,40,13.50
2019,09,25,09,41,13.60
2019,09,25,09,42,13.60
2019,09,25,09,43,13.60
2019,09,25,09,44,13.70
2019,09,25,09,45,13.70
2019,09,25,09,46,13.80
2019,09,25,09,47,13.80
2019,09,25,09,48,13.80
2019,09,25,09,49,13.80
2019,09,25,09,50,13.80
2019,09,25,09,51,13.90
2019,09,25,09,52,13.90
2019,09,25,09,53,14.00
2019,09,25,09,54,14.00
2019,09,25,09,55,14.10
2019,09,25,09,56,14.10
2019,09,25,09,57,14.10
2019,09,25,09,58,14.20
2019,09,25,09,59,14.20
2019,09,25,10,00,14.20
2019,09,25,10,01,14.30
2019,09,25,10,02,14.30
2019,09,25,10,03,14.40
2019,09,25,10,04,14.50
2019,09,25,10,05,14.60
2019,09,25,10,06,14.60
2019,09,25,10,07,14.70
2019,09,25,10,08,14.70
2019,09,25,10,09,14.70
2019,09,25,10,10,14.80
2019,09,25,10,11,14.80
2019,09,25,10,12,14.80
2019,09,25,10,13,14.80
2019,09,25,10,14,14.80
2019,09,25,10,15,14.80
2019,09,25,10,16,14.80
2019,09,25,10,17,14.90
2019,09,25,10,18,15.00
2019,09,25,10,19,15.00
2019,09,25,10,20,15.10
2019,09,25,10,21,15.10
2019,09,25,10,22,15.10
2019,09,25,10,23,15.10
2019,09,25,10,24,15.10
2019,09,25,10,25,15.20
2019,09,25,10,26,15.20
2019,09,25,10,27,15.30
2019,09,25,10,28,15.30
2019,09,25,10,29,15.40
2019,09,25,10,30,15.40
2019,09,25,10,31,15.40
2019,09,25,10,32,15.40
2019,09,25,10,33,15.40
2019,09,25,10,34,15.40
2019,09,25,10,35,15.30
2019,09,25,10,36,15.30
2019,09,25,10,37,15.30
2019,09,25,10,38,15.30
2019,09,25,10,39,15.40
2019,09,25,10,40,15.50
2019,09,25,10,41,15.60
2019,09,25,10,42,15.70
2019,09,25,10,43,15.80
2019,09,25,10,44,15.90
2019,09,25,10,45,16.00
2019,09,25,10,46,16.10
2019,09,25,10,47,16.10
2019,09,25,10,48,16.10
2019,09,25,10,49,16.00
2019,09,25,10,50,16.00
2019,09,25,10,51,16.00
2019,09,25,10,52,16.00
2019,09,25,10,53,16.10
2019,09,25,10,54,16.10
2019,09,25,10,55,16.10
2019,09,25,10,56,16.10
2019,09,25,10,57,16.10
2019,09,25,10,58,16.20
2019,09,25,10,59,16.20
2019,09,25,11,00,16.20
2019,09,25,11,01,16.20
2019,09,25,11,02,16.10
2019,09,25,11,03,16.10
2019,09,25,11,04,16.20
2019,09,25,11,05,16.30
2019,09,25,11,06,16.40
2019,09,25,11,07,16.40
2019,09,25,11,08,16.40
2019,09,25,11,09,16.40
2019,09,25,11,10,16.40
2019,09,25,11,11,16.40
2019,09,25,11,12,16.30
2019,09,25,11,13,16.30
2019,09,25,11,14,16.30
2019,09,25,11,15,16.30
2019,09,25,11,16,16.30
2019,09,25,11,17,16.40
2019,09,25,11,18,16.40
2019,09,25,11,19,16.50
2019,09,25,11,20,16.50
2019,09,25,11,21,16.50
2019,09,25,11,22,16.40
2019,09,25,11,23,16.40
2019,09,25,11,24,16.40
2019,09,25,11,25,16.40
2019,09,25,11,26,16.30
2019,09,25,11,27,16.30
2019,09,25,11,28,16.30
2019,09,25,11,29,16.20
2019,09,25,11,30,16.20
2019,09,25,11,31,16.20
2019,09,25,11,32,16.30
2019,09,25,11,33,16.30
2019,09,25,11,34,16.20
2019,09,25,11,35,16.20
2019,09,25,11,36,16.20
2019,09,25,11,37,16.10
2019,09,25,11,38,16.10
2019,09,25,11,39,16.00
2019,09,25,11,40,16.00
2019,09,25,11,41,16.10
2019,09,25,11,42,16.00
2019,09,25,11,43,16.10
2019,09,25,11,44,16.10
2019,09,25,11,45,16.00
2019,09,25,11,46,16.00
2019,09,25,11,47,15.90
2019,09,25,11,48,15.90
2019,09,25,11,49,16.00
2019,09,25,11,50,16.10
2019,09,25,11,51,16.20
2019,09,25,11,52,16.20
2019,09,25,11,53,16.30
2019,09,25,11,54,16.30
2019,09,25,11,55,16.40
2019,09,25,11,56,16.40
2019,09,25,11,57,16.40
2019,09,25,11,58,16.40
2019,09,25,11,59,16.40
2019,09,25,12,00,16.40
2019,09,25,12,01,16.40
2019,09,25,12,02,16.40
2019,09,25,12,03,16.50
2019,09,25,12,04,16.50
2019,09,25,12,05,16.50
2019,09,25,12,06,16.50
2019,09,25,12,07,16.50
2019,09,25,12,08,16.50
2019,09,25,12,09,16.50
2019,09,25,12,10,16.60
2019,09,25,12,11,16.60
2019,09,25,12,12,16.60
2019,09,25,12,13,16.60
2019,09,25,12,14,16.60
2019,09,25,12,15,16.60
2019,09,25,12,16,16.50
2019,09,25,12,17,16.50
2019,09,25,12,18,16.50
2019,09,25,12,19,16.50
2019,09,25,12,20,16.50
2019,09,25,12,21,16.60
2019,09,25,12,22,16.60
2019,09,25,12,23,16.60
2019,09,25,12,24,16.70
2019,09,25,12,25,16.60
2019,09,25,12,26,16.60
2019,09,25,12,27,16.50
2019,09,25,12,28,16.40
2019,09,25,12,29,16.40
2019,09,25,12,30,16.30
2019,09,25,12,31,16.30
2019,09,25,12,32,16.30
2019,09,25,12,33,16.30
2019,09,25,12,34,16.30
2019,09,25,12,35,16.30
2019,09,25,12,36,16.30
2019,09,25,12,37,16.30
2019,09,25,12,38,16.30
2019,09,25,12,39,16.30
2019,09,25,12,40,16.40
2019,09,25,12,41,16.30
2019,09,25,12,42,16.30
2019,09,25,12,43,16.40
2019,09,25,12,44,16.40
2019,09,25,12,45,16.40
2019,09,25,12,46,16.40
2019,09,25,12,47,16.50
2019,09,25,12,48,16.40
2019,09,25,12,49,16.40
2019,09,25,12,50,16.30
2019,09,25,12,51,16.30
2019,09,25,12,52,16.30
2019,09,25,12,53,16.20
2019,09,25,12,54,16.20
2019,09,25,12,55,16.20
2019,09,25,12,56,16.20
2019,09,25,12,57,16.20
2019,09,25,12,58,16.20
2019,09,25,12,59,16.30
2019,09,25,13,00,16.30
2019,09,25,13,01,16.30
2019,09,25,13,02,16.30
2019,09,25,13,03,16.30
2019,09,25,13,04,16.30
2019,09,25,13,05,16.30
2019,09,25,13,06,16.30
2019,09,25,13,07,16.30
2019,09,25,13,08,16.20
2019,09,25,13,09,16.20
2019,09,25,13,10,16.10
2019,09,25,13,11,16.00
2019,09,25,13,12,16.00
2019,09,25,13,13,16.00
2019,09,25,13,14,16.00
2019,09,25,13,15,16.00
2019,09,25,13,16,16.00
2019,09,25,13,17,16.00
2019,09,25,13,18,15.90
2019,09,25,13,19,15.90
2019,09,25,13,20,15.90
2019,09,25,13,21,15.80
2019,09,25,13,22,15.80
2019,09,25,13,23,15.70
2019,09,25,13,24,15.70
2019,09,25,13,25,15.60
2019,09,25,13,26,15.60
2019,09,25,13,27,15.50
2019,09,25,13,28,15.50
2019,09,25,13,29,15.50
2019,09,25,13,30,15.40
2019,09,25,13,31,15.40
2019,09,25,13,32,15.40
2019,09,25,13,33,15.50
2019,09,25,13,34,15.60
2019,09,25,13,35,15.60
2019,09,25,13,36,15.60
2019,09,25,13,37,15.60
2019,09,25,13,38,15.60
2019,09,25,13,39,15.60
2019,09,25,13,40,15.60
2019,09,25,13,41,15.60
2019,09,25,13,42,15.60
2019,09,25,13,43,15.60
2019,09,25,13,44,15.50
2019,09,25,13,45,15.50
2019,09,25,13,46,15.50
2019,09,25,13,47,15.40
2019,09,25,13,48,15.40
2019,09,25,13,49,15.40
2019,09,25,13,50,15.40
2019,09,25,13,51,15.40
2019,09,25,13,52,15.40
2019,09,25,13,53,15.40
2019,09,25,13,54,15.40
2019,09,25,13,55,15.30
2019,09,25,13,56,15.30
2019,09,25,13,57,15.30
2019,09,25,13,58,15.30
2019,09,25,13,59,15.20
2019,09,25,14,00,15.20
2019,09,25,14,01,15.30
2019,09,25,14,02,15.30
2019,09,25,14,03,15.30
2019,09,25,14,04,15.30
2019,09,25,14,05,15.30
2019,09,25,14,06,15.30
2019,09,25,14,07,15.30
2019,09,25,14,08,15.30
2019,09,25,14,09,15.30
2019,09,25,14,10,15.30
2019,09,25,14,11,15.30
2019,09,25,14,12,15.30
2019,09,25,14,13,15.30
2019,09,25,14,14,15.30
2019,09,25,14,15,15.30
2019,09,25,14,16,15.30
2019,09,25,14,17,15.30
2019,09,25,14,18,15.20
2019,09,25,14,19,15.20
2019,09,25,14,20,15.20
2019,09,25,14,21,15.20
2019,09,25,14,22,15.20
2019,09,25,14,23,15.10
2019,09,25,14,24,15.10
2019,09,25,14,25,15.10
2019,09,25,14,26,15.10
2019,09,25,14,27,15.10
2019,09,25,14,28,15.10
2019,09,25,14,29,15.00
2019,09,25,14,30,15.00
2019,09,25,14,31,15.00
2019,09,25,14,32,15.10
2019,09,25,14,33,15.00
2019,09,25,14,34,15.00
2019,09,25,14,35,15.00
2019,09,25,14,36,15.00
2019,09,25,14,37,15.00
2019,09,25,14,38,15.10
2019,09,25,14,39,15.10
2019,09,25,14,40,15.10
2019,09,25,14,41,15.10
2019,09,25,14,42,15.20
2019,09,25,14,43,15.20
2019,09,25,14,44,15.20
2019,09,25,14,45,15.20
2019,09,25,14,46,15.20
2019,09,25,14,47,15.20
2019,09,25,14,48,15.20
2019,09,25,14,49,15.10
2019,09,25,14,50,15.10
2019,09,25,14,51,15.10
2019,09,25,14,52,15.10
2019,09,25,14,53,15.10
2019,09,25,14,54,15.10
2019,09,25,14,55,15.10
2019,09,25,14,56,15.10
2019,09,25,14,57,15.10
2019,09,25,14,58,15.10
2019,09,25,14,59,15.00
2019,09,25,15,00,15.00
2019,09,25,15,01,15.00
2019,09,25,15,02,15.00
2019,09,25,15,03,15.00
2019,09,25,15,04,15.00
2019,09,25,15,05,15.00
2019,09,25,15,06,15.00
2019,09,25,15,07,15.00
2019,09,25,15,08,14.90
2019,09,25,15,09,14.90
2019,09,25,15,10,14.90
2019,09,25,15,11,14.90
2019,09,25,15,12,14.90
2019,09,25,15,13,14.90
2019,09,25,15,14,14.90
2019,09,25,15,15,14.90
2019,09,25,15,16,14.90
2019,09,25,15,17,14.90
2019,09,25,15,18,14.90
2019,09,25,15,19,14.90
2019,09,25,15,20,14.90
2019,09,25,15,21,14.90
2019,09,25,15,22,14.90
2019,09,25,15,23,14.90
2019,09,25,15,24,14.90
2019,09,25,15,25,14.80
2019,09,25,15,26,14.80
2019,09,25,15,27,14.80
2019,09,25,15,28,14.80
2019,09,25,15,29,14.80
2019,09,25,15,30,14.80
2019,09,25,15,31,14.80
2019,09,25,15,32,14.80
2019,09,25,15,33,14.80
2019,09,25,15,34,14.80
2019,09,25,15,35,14.70
2019,09,25,15,36,14.70
2019,09,25,15,37,14.70
2019,09,25,15,38,14.80
2019,09,25,15,39,14.70
2019,09,25,15,40,14.70
2019,09,25,15,41,14.70
2019,09,25,15,42,14.70
2019,09,25,15,43,14.80
2019,09,25,15,44,14.80
2019,09,25,15,45,14.80
2019,09,25,15,46,14.70
2019,09,25,15,47,14.70
2019,09,25,15,48,14.70
2019,09,25,15,49,14.70
2019,09,25,15,50,14.70
2019,09,25,15,51,14.70
2019,09,25,15,52,14.60
2019,09,25,15,53,14.60
2019,09,25,15,54,14.60
2019,09,25,15,55,14.60
2019,09,25,15,56,14.60
2019,09,25,15,57,14.60
2019,09,25,15,58,14.60
2019,09,25,15,59,14.60
2019,09,25,16,00,14.50
2019,09,25,16,01,14.50
2019,09,25,16,02,14.50
2019,09,25,16,03,14.50
2019,09,25,16,04,14.50
2019,09,25,16,05,14.50
2019,09,25,16,06,14.50
2019,09,25,16,07,14.50
2019,09,25,16,08,14.60
2019,09,25,16,09,14.60
2019,09,25,16,10,14.60
2019,09,25,16,11,14.60
2019,09,25,16,12,14.60
2019,09,25,16,13,14.60
2019,09,25,16,14,14.50
2019,09,25,16,15,14.50
2019,09,25,16,16,14.50
2019,09,25,16,17,14.50
2019,09,25,16,18,14.50
2019,09,25,16,19,14.50
2019,09,25,16,20,14.50
2019,09,25,16,21,14.50
2019,09,25,16,22,14.50
2019,09,25,16,23,14.50
2019,09,25,16,24,14.50
2019,09,25,16,25,14.40
2019,09,25,16,26,14.40
2019,09,25,16,27,14.40
2019,09,25,16,28,14.40
2019,09,25,16,29,14.40
2019,09,25,16,30,14.40
2019,09,25,16,31,14.40
2019,09,25,16,32,14.40
2019,09,25,16,33,14.50
2019,09,25,16,34,14.50
2019,09,25,16,35,14.50
2019,09,25,16,36,14.50
2019,09,25,16,37,14.50
2019,09,25,16,38,14.50
2019,09,25,16,39,14.50
2019,09,25,16,40,14.50
2019,09,25,16,41,14.50
2019,09,25,16,42,14.50
2019,09,25,16,43,14.50
2019,09,25,16,44,14.50
2019,09,25,16,45,14.50
2019,09,25,16,46,14.50
2019,09,25,16,47,14.50
2019,09,25,16,48,14.60
2019,09,25,16,49,14.60
2019,09,25,16,50,14.60
2019,09,25,16,51,14.60
2019,09,25,16,52,14.60
2019,09,25,16,53,14.60
2019,09,25,16,54,14.70
2019,09,25,16,55,14.70
2019,09,25,16,56,14.70
2019,09,25,16,57,14.70
2019,09,25,16,58,14.70
2019,09,25,16,59,14.70
2019,09,25,17,00,14.70
2019,09,25,17,01,14.70
2019,09,25,17,02,14.70
2019,09,25,17,03,14.70
2019,09,25,17,04,14.70
2019,09,25,17,05,14.70
2019,09,25,17,06,14.70
2019,09,25,17,07,14.70
2019,09,25,17,08,14.70
2019,09,25,17,09,14.70
2019,09,25,17,10,14.70
2019,09,25,17,11,14.70
2019,09,25,17,12,14.70
2019,09,25,17,13,14.60
2019,09,25,17,14,14.60
2019,09,25,17,15,14.60
2019,09,25,17,16,14.60
2019,09,25,17,17,14.60
2019,09,25,17,18,14.60
2019,09,25,17,19,14.60
2019,09,25,17,20,14.60
2019,09,25,17,21,14.60
2019,09,25,17,22,14.60
2019,09,25,17,23,14.60
2019,09,25,17,24,14.60
2019,09,25,17,25,14.60
2019,09,25,17,26,14.60
2019,09,25,17,27,14.50